Regional Weather Roundup
Issued by NWS

Home | Current Version | Previous Version | Text Only | Print | Product List | Glossary Off
Versions: 1 2 3 4 5 6 7 8 9 10 11 12 13 14 15 16 17 18 19 20 21 22 23 24 25 26 27 28 29 30 31 32 33 34 35 36 37 38 39 40 41 42 43 44 45 46 47 48 49 50

000
ASUS43 KMKX 250221
RWRWI

WISCONSIN REGIONAL WEATHER ROUNDUP
NATIONAL WEATHER SERVICE MILWAUKEE/SULLIVAN WI
800 PM CST FRI FEB 24 2017

NOTE: "FAIR" INDICATES FEW OR NO CLOUDS BELOW 12,000 FEET WITH NO
SIGNIFICANT WEATHER AND/OR OBSTRUCTIONS TO VISIBILITY.

WIZ001-002-006>008-014>016-023>028-250300-
NORTHWEST WISCONSIN

CITY           SKY/WX    TMP DP  RH WIND       PRES   REMARKS
SUPERIOR ARPT  CLOUDY    21   8  56 N9G17     29.90S WCI  10
ASHLAND        CLOUDY    20   9  62 N10       29.85F WCI   9
HAYWARD        CLOUDY    19   7  59 N10       29.81F WCI   7
SIREN          CLOUDY    21  10  62 N8        29.86S WCI  12
CUMBERLAND     CLOUDY    19  10  68 N8        29.81S WCI   9
RICE LAKE      CLOUDY    20  10  67 N14G22    29.83S WCI   6
CHETEK         LGT SNOW  18  13  84 N6        29.81F WCI   9
LADYSMITH      LGT SNOW  17  13  82 N14G23    29.79R WCI   3
EAU CLAIRE     LGT SNOW  19  15  84 N13       29.80R VSB 3/4 WCI   6
MENOMONIE      LGT SNOW  20  15  83 NW12G21   29.82S WCI   8
NEW RICHMOND   CLOUDY    22  11  62 N20G28    29.84S WCI   7
OSCEOLA        CLOUDY    23  11  61 N17G25    29.89S WCI   9
$$

WIZ003>005-009-010-017-018-250300-
NORTH CENTRAL WISCONSIN

CITY           SKY/WX    TMP DP  RH WIND       PRES   REMARKS
MANITOWISH WTR LGT SNOW  16  14  94 N8G22     29.70S WCI   5
ARBOR VITAE    LGT SNOW  19  16  86 N13         N/A  WCI   6
WOODRUFF       LGT SNOW  19  16  86 N13         N/A  WCI   6
RHINELANDER    LGT SNOW  18  14  84 VRB6      29.66F FOG     WCI  10
EAGLE RIVER    LGT SNOW  17  12  80 N12G18    29.67S WCI   4
LAND O LAKES   LGT SNOW  18  14  86 N12G20    29.69S WCI   5
PHILLIPS       LGT SNOW  16  13  90 N8        29.71F WCI   5
TOMAHAWK       LGT SNOW  18  13  80 N7G20     29.68F WCI   8
MEDFORD        LGT SNOW  18  13  82 N15       29.68R WCI   3
MERRILL        NOT AVBL
$$

WIZ029-030-035-036-043>047-250300-
CENTRAL WISCONSIN

CITY           SKY/WX    TMP DP  RH WIND       PRES   REMARKS
WAUSAU         LGT SNOW  19  15  84 N10G18    29.65S FOG     WCI   7
MOSINEE        LGT SNOW  19  18  93 N15G21    29.67R WCI   5
MARSHFIELD     LGT SNOW  20  15  81 N13       29.67R WCI   7
STEVENS POINT  CLOUDY    19  18  93 N7G17     29.66R FOG     WCI  10
WAUPACA        MIX PCPN  26  23  88 NW10      29.64R WCI  17
WAUTOMA        LGT SNOW  25  23  92 NW10      29.65R FOG     WCI  15
WISC RAPIDS    FLURRIES  22  18  85 N17       29.68R WCI   8
CAMP DOUGLAS   MIX PCPN  23  19  86 N9        29.67S WCI  13
$$

WIZ011>013-019>022-031-037>040-048>050-250300-
NORTHEAST WISCONSIN

CITY           SKY/WX    TMP DP  RH WIND       PRES   REMARKS
ANTIGO         LGT SNOW  17  14  86 N21       29.62F WCI   0
SHAWANO        LGT SNOW  25  22  88 CALM      29.64R
OCONTO         CLOUDY    24  22  91 N12       29.59F WCI  13
STURGEON BAY   MIX PCPN  26  25  96 MISG      29.56S FOG
GREEN BAY      CLOUDY    26  24  92 N15       29.59S FOG     WCI  14
MANITOWOC      FLURRIES  27  25  92 N17G24    29.54S WCI  14
APPLETON       CLOUDY    25  25 100 N12G20    29.58R FOG     WCI  14
CLINTONVILLE   MIX PCPN  25  21  86 N12G18    29.63R WCI  14
OSHKOSH        CLOUDY    26  23  88 N16       29.60R FOG     WCI  14
$$

WIZ032>034-041-042-053>061-250300-
SOUTHWEST WISCONSIN

CITY           SKY/WX    TMP DP  RH WIND       PRES   REMARKS
LA CROSSE      CLOUDY    24  19  81 N22G28    29.75R HAZE    WCI   9
SPARTA         LGT SNOW  24  21  89 N13G22    29.72S WCI  12
VIROQUA        CLOUDY    24  22  94 N9        29.67S WCI  14
BOSCOBEL       LGT SNOW  28  23  81 N7        29.69S WCI  21
PRAIRIE DU CHI LGT SNOW  27  24  89 NW12      29.71S WCI  17
PLATTEVILLE    CLOUDY    28  28  99 N8        29.65S WCI  20
$$

WIZ056-057-062-063-064-067-068-250300-
SOUTH CENTRAL WISCONSIN

CITY           SKY/WX    TMP DP  RH WIND       PRES   REMARKS
REEDSBURG      FLURRIES  26  25  97 NW7       29.65S WCI  18
BARABOO/DELLS  CLOUDY    25  24  94 N7        29.64R FOG     WCI  18
LONE ROCK      CLOUDY    27  24  89 NW9       29.67S WCI  18
MINERAL POINT  LGT SNOW  30  30 100 NW3       29.63S
MADISON        FLURRIES  27  24  89 N14       29.62R WCI  16
MIDDLETON      CLOUDY    29  28  99 N3        29.63R
WATERTOWN      CLOUDY    27  27 100 N12       29.58F WCI  17
MONROE         CLOUDY    28  27  93 N8G20     29.61S WCI  20
JANESVILLE     CLOUDY    30  30 100 N14G20    29.60R WCI  20
$$

WIZ051-052-058>065-066-070>072-250300-
SOUTHEAST WISCONSIN

CITY           SKY/WX    TMP DP  RH WIND       PRES   REMARKS
MILWAUKEE      FRZ DRZL  32  29  88 NW8       29.56R FOG     WCI  25
WAUKESHA       MIX PCPN  28  28 100 NW10      29.57R WCI  19
MILWAUKEE/TIMM CLOUDY    30  27  86 NW9       29.55F FOG     WCI  22
RACINE         CLOUDY    32  30  92 NW9       29.57R FOG     WCI  24
KENOSHA        LGT SNOW  32  30  92 NW8       29.55R FOG     WCI  25
FOND DU LAC    MIX PCPN  27  22  81 N14       29.60R WCI  16
SHEBOYGAN      LGT SNOW  27  24  89 NW17G24   29.54S FOG     WCI  14
WEST BEND      CLOUDY    28  28 100 NW3       29.55S FOG
JUNEAU         CLOUDY    26  24  93 N6        29.60S WCI  19
$$

LSZ147-162-250300-
LAKE SUPERIOR

STATION/POSITION TIME  TEMP    WIND        PRES    WAVE
                       AIR SEA DIR/SP/G            HT/PER
                 (UTC) (F)     (DEG/KT/KT) (MB)    (FT/S)
DEVILS ISLAND    0200   21      10/ 15/ 18 1012.2F
PORT WING        0140   23     350/ 19/ 23 1011.9F
SAXON HARBOR     0030   22      10/ 20/ 26 1010.5F
$$

LMZ867-665-643>646-250300-
LAKE MICHIGAN

STATION/POSITION TIME  TEMP    WIND        PRES    WAVE
                       AIR SEA DIR/SP/G            HT/PER
                 (UTC) (F)     (DEG/KT/KT) (MB)    (FT/S)
CHAMBERS ISLAND  0140   27     350/  4/  5 1001.4F
NORTHPORT PIER   0206   27     360/  4/  6 1001.0
SISTER BAY       0135   27        CALM       N/A
KEWAUNEE LAKESHO 0154   27     360/ 11/ 17 1000.2F
SHEBOYGAN LAKESH 0200   28     340/  7/  8 1000.7R
PORT WASHINGTON  0130   30     310/  8/ 14 1001.7S
MILWAUKEE LAKESH 0200   31     310/  8/ 11   N/A
KENOSHA   LAKESH 0200   33     300/  9/ 15 1001.4
$$

TC  - TEMPERATURE IN CELSIUS
VSB - VISIBILITY IN STATUTE MILES
WCI - WIND CHILL INDEX
HX  - HEAT INDEX




USA.gov is the U.S. government's official web portal to all federal, state and local government web resources and services.